Tracking 25963 objects as of 12-Aug-2022
HD Live streaming from Space Station
objects crossing your sky now

SAKURA 2A (CS-2A)

Track SAKURA 2A (CS-2A) now!
SAKURA 2A (CS-2A) is classified as:


NORAD ID: 13782
Int'l Code: 1983-006A
Perigee: 36,013.5 km
Apogee: 36,063.2 km
Inclination: 12.6 °
Period: 1,448.6 minutes
Semi major axis: 42409 km
RCS: 5.8102 m2 (large)
Launch date: February 4, 1983
Source: Japan (JPN)
Launch site: TANEGASHIMA SPACE CENTER (TNSTA)
aabbcc
Your satellite tracking list
Your tracking list is empty




NASA's NSSDC Master Catalog

Two Line Element Set (TLE):
1 13782U 83006A   22224.01809398  .00000048  00000-0  00000-0 0  9990
2 13782  12.5826 330.6959 0005856 278.4486 114.5777  0.99405549113883
Source of the keplerian elements: AFSPC